Change the Weather History Date:

Monday, September 23, 2013

  Actual Average Record
Temperature  
Mean Temperature 49 °F -  
Max Temperature 60 °F 68 °F 87 °F (2010)
Min Temperature 38 °F 45 °F 29 °F (1974)
Degree Days  
Heating Degree Days 16    
Moisture  
Dew Point 44 °F    
Average Humidity 83    
Maximum Humidity 99    
Minimum Humidity 55    
Precipitation  
Precipitation 0.00 in - - ()
Sea Level Pressure  
Sea Level Pressure 30.13 in    
Wind  
Wind Speed 2 mph (East)    
Max Wind Speed 9 mph    
Max Gust Speed -    
Visibility 10 miles    
Events      
Averages and records for this station are not official NWS values.
T = Trace of Precipitation, MM = Missing Value Source: NWS Daily Summary

Daily Weather History Graph

Daily Weather History Graph

Search for Another Location

Airport or City:

Trip Planner

Search our weather history database for the weather conditions in past years. The results will help you decide how hot, cold, wet, or windy it might be!

Date:

Astronomy

Sep. 23, 2013 Rise Set
Actual Time 7:27 AM EDT 7:33 PM EDT
Civil Twilight 6:59 AM EDT 8:01 PM EDT
Nautical Twilight 6:26 AM EDT 8:33 PM EDT
Astronomical Twilight 5:53 AM EDT 9:06 PM EDT
Moon 10:00 PM EDT (9/23) 11:49 AM EDT (9/23)
Length of Visible Light 13h 01m
Length of Day
12h 06m
Waning Gibbous, 81% of the Moon is Illuminated
Sep 23
Waning Gibbous
Sep 26
Last Quarter
Oct 4
New
Oct 11
First Quarter
Oct 18
Full

Hourly Weather History & Observations

Time (EDT) Temp. Windchill Dew Point Humidity Pressure Visibility Wind Dir Wind Speed Gust Speed Precip Events Conditions
12:15 AM 41.2 °F - 40.8 °F 99% 30.07 in 10.0 mi Calm Calm - N/A   Clear
12:34 AM 41.0 °F - 40.6 °F 99% 30.07 in 10.0 mi Calm Calm - N/A   Clear
12:55 AM 40.6 °F - 40.5 °F 99% 30.08 in 10.0 mi Calm Calm - N/A   Clear
1:14 AM 40.3 °F - 40.1 °F 99% 30.08 in 10.0 mi Calm Calm - N/A   Clear
1:34 AM 40.3 °F - 40.1 °F 99% 30.09 in 10.0 mi Calm Calm - N/A   Clear
1:55 AM 39.6 °F - 39.4 °F 99% 30.09 in 10.0 mi Calm Calm - N/A   Clear
2:14 AM 39.6 °F - 39.2 °F 99% 30.09 in 7.0 mi Calm Calm - N/A   Clear
2:35 AM 39.2 °F - 38.8 °F 99% 30.10 in 7.0 mi Calm Calm - N/A   Clear
2:55 AM 39.4 °F - 39.0 °F 99% 30.09 in 10.0 mi Calm Calm - N/A   Clear
3:14 AM 38.8 °F - 38.7 °F 99% 30.09 in 7.0 mi Calm Calm - N/A   Clear
3:35 AM 39.4 °F - 39.2 °F 99% 30.09 in 10.0 mi Calm Calm - N/A   Clear
3:55 AM 39.9 °F - 39.7 °F 99% 30.09 in 10.0 mi Calm Calm - N/A   Clear
4:14 AM 39.6 °F - 39.4 °F 99% 30.09 in 10.0 mi Calm Calm - N/A   Scattered Clouds
4:35 AM 40.6 °F 38.6 °F 40.5 °F 99% 30.09 in 10.0 mi ENE 3.5 mph - N/A   Scattered Clouds
4:55 AM 41.2 °F 39.2 °F 41.0 °F 99% 30.10 in 10.0 mi ENE 3.5 mph - N/A   Mostly Cloudy
5:14 AM 42.3 °F 40.5 °F 42.1 °F 99% 30.10 in 10.0 mi ENE 3.5 mph - N/A   Overcast
5:35 AM 42.6 °F - 42.4 °F 99% 30.10 in 10.0 mi Calm Calm - N/A   Mostly Cloudy
5:54 AM 44.1 °F - 43.9 °F 99% 30.10 in 10.0 mi Calm Calm - N/A   Overcast
6:15 AM 45.0 °F 42.6 °F 44.4 °F 98% 30.11 in 10.0 mi ENE 4.6 mph - N/A   Overcast
6:34 AM 45.0 °F 42.6 °F 44.4 °F 98% 30.11 in 10.0 mi East 4.6 mph - N/A   Mostly Cloudy
6:54 AM 45.7 °F 44.4 °F 45.0 °F 97% 30.12 in 10.0 mi East 3.5 mph - N/A   Mostly Cloudy
7:15 AM 45.7 °F 44.4 °F 45.0 °F 97% 30.12 in 10.0 mi East 3.5 mph - N/A   Overcast
7:34 AM 45.9 °F 44.6 °F 45.1 °F 97% 30.14 in 10.0 mi East 3.5 mph - N/A   Overcast
7:54 AM 46.2 °F - 45.1 °F 96% 30.14 in 10.0 mi Calm Calm - N/A   Overcast
8:15 AM 46.8 °F - 45.5 °F 95% 30.15 in 10.0 mi Calm Calm - N/A   Overcast
8:34 AM 47.1 °F - 45.5 °F 94% 30.16 in 10.0 mi ENE 3.5 mph - N/A   Overcast
8:55 AM 47.8 °F - 45.5 °F 92% 30.16 in 10.0 mi East 3.5 mph - N/A   Overcast
9:14 AM 48.4 °F - 45.3 °F 89% 30.17 in 10.0 mi East 4.6 mph - N/A   Overcast
9:34 AM 49.3 °F - 46.4 °F 90% 30.17 in 10.0 mi East 4.6 mph - N/A   Overcast
9:55 AM 50.5 °F - 47.3 °F 89% 30.17 in 10.0 mi East 3.5 mph - N/A   Overcast
10:14 AM 51.4 °F - 46.9 °F 85% 30.17 in 10.0 mi East 4.6 mph - N/A   Overcast
10:35 AM 52.9 °F - 46.9 °F 80% 30.17 in 10.0 mi ESE 5.8 mph - N/A   Overcast
10:55 AM 54.0 °F - 46.8 °F 77% 30.17 in 10.0 mi ESE 5.8 mph - N/A   Overcast
11:14 AM 55.2 °F - 46.6 °F 73% 30.17 in 10.0 mi East 9.2 mph - N/A   Overcast
11:35 AM 56.5 °F - 46.6 °F 69% 30.17 in 10.0 mi ESE 5.8 mph - N/A   Overcast
11:55 AM 55.9 °F - 46.4 °F 70% 30.17 in 10.0 mi ESE 5.8 mph - N/A   Overcast
12:14 PM 56.7 °F - 45.9 °F 67% 30.17 in 10.0 mi SSE 3.5 mph - N/A   Overcast
12:35 PM 56.7 °F - 44.6 °F 64% 30.17 in 10.0 mi East 5.8 mph - N/A   Mostly Cloudy
12:54 PM 56.7 °F - 44.2 °F 63% 30.17 in 10.0 mi Calm Calm - N/A   Overcast
1:14 PM 57.2 °F - 45.1 °F 64% 30.17 in 10.0 mi SE 6.9 mph - N/A   Overcast
1:35 PM 56.8 °F - 45.1 °F 65% 30.17 in 10.0 mi Calm Calm - N/A   Overcast
1:54 PM 57.2 °F - 44.8 °F 63% 30.17 in 10.0 mi ESE 4.6 mph - N/A   Overcast
2:14 PM 57.2 °F - 44.1 °F 62% 30.16 in 10.0 mi SSE 3.5 mph - N/A   Overcast
2:35 PM 58.5 °F - 45.1 °F 61% 30.16 in 10.0 mi East 5.8 mph - N/A   Overcast
2:54 PM 58.5 °F - 43.9 °F 58% 30.16 in 10.0 mi Calm Calm - N/A   Overcast
3:15 PM 58.5 °F - 44.4 °F 60% 30.15 in 10.0 mi East 6.9 mph - N/A   Overcast
3:35 PM 58.5 °F - 43.5 °F 58% 30.15 in 10.0 mi Calm Calm - N/A   Overcast
3:54 PM 58.6 °F - 43.3 °F 57% 30.14 in 10.0 mi Calm Calm - N/A   Overcast
4:15 PM 58.3 °F - 43.7 °F 58% 30.14 in 10.0 mi ESE 3.5 mph - N/A   Mostly Cloudy
4:35 PM 59.0 °F - 43.7 °F 57% 30.13 in 10.0 mi SE 4.6 mph - N/A   Clear
4:54 PM 59.7 °F - 43.5 °F 55% 30.13 in 10.0 mi Calm Calm - N/A   Clear
5:15 PM 60.3 °F - 43.9 °F 55% 30.13 in 10.0 mi East 3.5 mph - N/A   Clear
5:34 PM 60.4 °F - 44.6 °F 56% 30.13 in 10.0 mi East 5.8 mph - N/A   Clear
5:54 PM 60.1 °F - 44.4 °F 56% 30.12 in 10.0 mi ESE 6.9 mph - N/A   Clear
6:15 PM 59.4 °F - 44.4 °F 58% 30.12 in 10.0 mi East 6.9 mph - N/A   Clear
6:34 PM 58.6 °F - 45.5 °F 62% 30.12 in 10.0 mi East 5.8 mph - N/A   Clear
6:54 PM 57.6 °F - 45.7 °F 65% 30.12 in 10.0 mi Calm Calm - N/A   Clear
7:15 PM 55.4 °F - 47.3 °F 74% 30.12 in 10.0 mi Calm Calm - N/A   Clear
7:34 PM 52.3 °F - 48.6 °F 87% 30.13 in 10.0 mi Calm Calm - N/A   Clear
7:54 PM 50.4 °F - 47.8 °F 91% 30.12 in 10.0 mi Calm Calm - N/A   Clear
8:14 PM 48.9 °F - 47.1 °F 93% 30.12 in 10.0 mi Calm Calm - N/A   Clear
8:34 PM 48.7 °F - 46.9 °F 93% 30.12 in 10.0 mi East 3.5 mph - N/A   Clear
8:55 PM 47.7 °F - 46.2 °F 95% 30.13 in 10.0 mi Calm Calm - N/A   Clear
9:14 PM 49.8 °F - 46.0 °F 87% 30.13 in 10.0 mi ESE 3.5 mph - N/A   Clear
9:34 PM 48.9 °F - 45.7 °F 89% 30.13 in 10.0 mi Calm Calm - N/A   Clear
9:55 PM 47.8 °F - 45.1 °F 90% 30.13 in 10.0 mi Calm Calm - N/A   Clear
10:14 PM 48.0 °F - 45.0 °F 89% 30.14 in 10.0 mi Calm Calm - N/A   Clear
10:35 PM 45.5 °F - 44.2 °F 95% 30.14 in 10.0 mi Calm Calm - N/A   Clear
10:55 PM 45.1 °F - 44.2 °F 97% 30.14 in 10.0 mi Calm Calm - N/A   Clear
11:14 PM 44.1 °F - 43.3 °F 97% 30.13 in 10.0 mi Calm Calm - N/A   Clear
11:35 PM 44.1 °F - 43.3 °F 97% 30.13 in 10.0 mi Calm Calm - N/A   Clear
11:55 PM 44.2 °F - 43.7 °F 98% 30.13 in 10.0 mi Calm Calm - N/A   Clear